Location: Champseau
(45.8333°N, 1.7667°E)
Time: 03:36:10
(UTC+00:00)

COSMOS 2455 - Pass Details

Date: 18 April 2021
Orbit: 902 x 907 km, 67.1° (Epoch: 10 May)

Event Time Altitude Azimuth Distance (km) Brightness Sun altitude
Exits shadow 23:01:18 38° 275° (W) 1,365 3.8 -31.9°
Maximum altitude 23:02:47 44° 311° (NW) 1,231 3.7 -31.9°
Drops below altitude 10° 23:08:32 10° 23° (NNE) 2,599 5.8 -32.2°
Sets 23:11:12 0° 30° (NNE) 3,544 6.6 -32.3°
